TimeEST,TemperatureF,Dew PointF,Humidity,Sea Level PressureIn,VisibilityMPH,Wind Direction,Wind SpeedMPH,Gust SpeedMPH,PrecipitationIn,Events,Conditions,WindDirDegrees,DateUTC
12:15 AM,35.4,18.7,51,30.13,10.0,North,9.2,-,N/A,,Clear,350,2013-02-25 05:15:00
12:35 AM,34.7,18.7,52,30.13,10.0,NW,4.6,-,N/A,,Clear,320,2013-02-25 05:35:00
12:55 AM,34.2,18.7,53,30.13,10.0,NW,5.8,-,N/A,,Clear,320,2013-02-25 05:55:00
1:35 AM,33.1,18.9,56,30.14,10.0,NW,5.8,-,N/A,,Clear,310,2013-02-25 06:35:00
1:55 AM,32.0,19.2,59,30.14,10.0,NW,4.6,-,N/A,,Clear,320,2013-02-25 06:55:00
2:35 AM,32.0,19.2,59,30.14,10.0,NW,5.8,-,N/A,,Clear,320,2013-02-25 07:35:00
2:55 AM,32.0,19.0,59,30.14,10.0,NW,4.6,-,N/A,,Clear,310,2013-02-25 07:55:00
3:15 AM,31.8,19.2,60,30.15,10.0,NNW,3.5,-,N/A,,Clear,330,2013-02-25 08:15:00
3:35 AM,31.6,19.4,61,30.14,10.0,NNW,4.6,-,N/A,,Clear,340,2013-02-25 08:35:00
3:55 AM,31.1,19.8,63,30.14,10.0,NNW,5.8,-,N/A,,Clear,340,2013-02-25 08:55:00
4:15 AM,30.9,19.9,64,30.14,10.0,NW,4.6,-,N/A,,Clear,310,2013-02-25 09:15:00
4:35 AM,28.2,20.7,73,30.16,10.0,Calm,Calm,-,N/A,,Clear,0,2013-02-25 09:35:00
4:55 AM,28.0,20.7,74,30.18,10.0,NW,3.5,-,N/A,,Clear,310,2013-02-25 09:55:00
5:15 AM,30.2,20.7,68,30.17,10.0,North,5.8,-,N/A,,Clear,350,2013-02-25 10:15:00
5:35 AM,30.0,20.7,68,30.17,10.0,NNW,5.8,-,N/A,,Clear,340,2013-02-25 10:35:00
5:55 AM,30.6,20.7,67,30.18,10.0,Calm,Calm,-,N/A,,Clear,0,2013-02-25 10:55:00
6:15 AM,27.3,20.1,74,30.18,10.0,Calm,Calm,-,N/A,,Clear,0,2013-02-25 11:15:00
6:35 AM,27.1,20.7,77,30.19,10.0,NNW,4.6,-,N/A,,Clear,340,2013-02-25 11:35:00
6:55 AM,28.6,20.3,71,30.19,10.0,Calm,Calm,-,N/A,,Clear,0,2013-02-25 11:55:00
7:15 AM,31.1,21.9,69,30.19,10.0,Calm,Calm,-,N/A,,Clear,0,2013-02-25 12:15:00
7:35 AM,33.8,22.5,63,30.20,10.0,NNW,4.6,-,N/A,,Clear,330,2013-02-25 12:35:00
7:55 AM,34.3,22.1,61,30.19,10.0,North,8.1,-,N/A,,Clear,350,2013-02-25 12:55:00
8:15 AM,35.1,21.9,59,30.20,10.0,North,6.9,16.1,N/A,,Clear,350,2013-02-25 13:15:00
8:35 AM,36.1,22.1,57,30.21,10.0,NNW,5.8,-,N/A,,Clear,340,2013-02-25 13:35:00
8:55 AM,37.8,22.3,54,30.22,10.0,North,8.1,-,N/A,,Clear,350,2013-02-25 13:55:00
9:15 AM,38.5,21.7,51,30.22,10.0,NNW,5.8,-,N/A,,Clear,340,2013-02-25 14:15:00
9:35 AM,39.7,21.9,49,30.22,10.0,North,5.8,-,N/A,,Clear,350,2013-02-25 14:35:00
9:55 AM,40.8,21.6,46,30.22,10.0,NW,6.9,-,N/A,,Clear,320,2013-02-25 14:55:00
10:15 AM,41.4,21.7,46,30.21,10.0,North,6.9,-,N/A,,Clear,350,2013-02-25 15:15:00
10:35 AM,41.9,21.0,43,30.22,10.0,Calm,Calm,-,N/A,,Clear,0,2013-02-25 15:35:00
10:55 AM,42.8,21.2,42,30.22,10.0,Calm,Calm,-,N/A,,Clear,0,2013-02-25 15:55:00
11:15 AM,43.3,20.8,41,30.22,10.0,NNW,4.6,-,N/A,,Clear,330,2013-02-25 16:15:00
11:35 AM,44.1,20.8,40,30.22,10.0,Calm,Calm,-,N/A,,Clear,0,2013-02-25 16:35:00
11:55 AM,45.1,21.9,40,30.21,10.0,North,4.6,-,N/A,,Clear,360,2013-02-25 16:55:00
12:15 PM,44.8,21.2,39,30.20,10.0,Calm,Calm,-,N/A,,Clear,0,2013-02-25 17:15:00
12:35 PM,45.1,21.0,38,30.19,10.0,North,4.6,-,N/A,,Clear,360,2013-02-25 17:35:00
12:55 PM,45.0,20.7,38,30.19,10.0,Calm,Calm,-,N/A,,Clear,0,2013-02-25 17:55:00
1:15 PM,45.1,20.3,37,30.18,10.0,Calm,Calm,-,N/A,,Clear,0,2013-02-25 18:15:00
1:35 PM,45.5,21.0,38,30.17,10.0,East,4.6,-,N/A,,Clear,90,2013-02-25 18:35:00
1:55 PM,46.2,21.9,38,30.17,10.0,NE,6.9,-,N/A,,Clear,50,2013-02-25 18:55:00
2:15 PM,45.9,21.2,38,30.16,10.0,Calm,Calm,-,N/A,,Clear,0,2013-02-25 19:15:00
2:35 PM,46.4,21.6,37,30.16,10.0,ENE,4.6,-,N/A,,Clear,60,2013-02-25 19:35:00
2:55 PM,46.2,21.2,37,30.16,10.0,Calm,Calm,-,N/A,,Clear,0,2013-02-25 19:55:00
3:15 PM,46.2,21.2,37,30.16,10.0,ENE,3.5,-,N/A,,Clear,70,2013-02-25 20:15:00
3:35 PM,46.0,21.2,37,30.17,10.0,East,4.6,-,N/A,,Clear,100,2013-02-25 20:35:00
3:55 PM,46.8,21.4,37,30.17,10.0,SE,4.6,-,N/A,,Clear,130,2013-02-25 20:55:00
4:15 PM,46.6,21.0,36,30.17,10.0,Calm,Calm,-,N/A,,Clear,0,2013-02-25 21:15:00
4:35 PM,46.2,21.2,37,30.17,10.0,SSE,3.5,-,N/A,,Clear,160,2013-02-25 21:35:00
4:55 PM,45.5,22.1,40,30.18,10.0,SE,4.6,-,N/A,,Clear,140,2013-02-25 21:55:00
5:15 PM,44.4,22.5,42,30.18,10.0,SE,4.6,-,N/A,,Clear,140,2013-02-25 22:15:00
5:35 PM,43.2,21.9,43,30.18,10.0,SSE,3.5,-,N/A,,Clear,150,2013-02-25 22:35:00
5:55 PM,39.9,23.2,51,30.18,10.0,SSE,3.5,-,N/A,,Clear,160,2013-02-25 22:55:00
6:15 PM,38.7,24.6,57,30.19,10.0,South,3.5,-,N/A,,Clear,170,2013-02-25 23:15:00
6:35 PM,38.3,25.7,61,30.20,10.0,Calm,Calm,-,N/A,,Clear,0,2013-02-25 23:35:00
6:55 PM,37.8,24.8,60,30.20,10.0,Calm,Calm,-,N/A,,Clear,0,2013-02-25 23:55:00
7:15 PM,37.0,26.1,65,30.21,10.0,Calm,Calm,-,N/A,,Clear,0,2013-02-26 00:15:00
7:35 PM,34.5,25.9,71,30.20,10.0,Calm,Calm,-,N/A,,Clear,0,2013-02-26 00:35:00
7:55 PM,34.2,25.5,71,30.21,10.0,Calm,Calm,-,N/A,,Clear,0,2013-02-26 00:55:00
8:35 PM,32.9,25.9,75,30.20,7.0,ESE,3.5,-,N/A,,Clear,110,2013-02-26 01:35:00
8:55 PM,31.6,25.7,79,30.21,10.0,ESE,3.5,-,N/A,,Clear,120,2013-02-26 01:55:00
9:15 PM,31.5,25.3,78,30.20,10.0,Calm,Calm,-,N/A,,Clear,0,2013-02-26 02:15:00
9:35 PM,30.9,25.7,81,30.22,10.0,Calm,Calm,-,N/A,,Clear,0,2013-02-26 02:35:00
9:55 PM,31.6,25.7,79,30.21,10.0,Calm,Calm,-,N/A,,Clear,0,2013-02-26 02:55:00
10:15 PM,30.2,24.6,80,30.19,10.0,Calm,Calm,-,N/A,,Clear,0,2013-02-26 03:15:00
10:35 PM,30.7,25.2,80,30.19,10.0,Calm,Calm,-,N/A,,Clear,0,2013-02-26 03:35:00
10:55 PM,29.7,24.4,81,30.20,10.0,Calm,Calm,-,N/A,,Clear,0,2013-02-26 03:55:00
11:35 PM,29.1,24.6,83,30.20,10.0,Calm,Calm,-,N/A,,Clear,0,2013-02-26 04:35:00
11:55 PM,29.8,24.3,80,30.20,10.0,Calm,Calm,-,N/A,,Clear,0,2013-02-26 04:55:00